Regional Weather Roundup
Issued by NWS

Home | Current Version | Previous Version | Graphics & Text | Print | Product List | Glossary On
Versions: 1 2 3 4 5 6 7 8 9 10 11 12 13 14 15 16 17 18 19 20 21 22 23 24 25 26 27 28 29 30 31 32 33 34 35 36 37 38 39 40 41 42 43 44 45 46 47 48 49 50
000
ASUS43 KLSX 020607
RWRMO

WEATHER SUMMARY FOR MISSOURI
NATIONAL WEATHER SERVICE SPRINGFIELD MO
100 AM CDT WED SEP 02 2015

NOTE: "FAIR" INDICATES FEW OR NO CLOUDS BELOW 12,000 FEET WITH NO
       SIGNIFICANT WEATHER AND/OR OBSTRUCTIONS TO VISIBILITY.
       CURRENT SKY AND/OR WEATHER CONDITIONS ARE NOT AVAILABLE FOR
       CHILLICOTHE AND FARMINGTON.

MOZ001>031-035>038-043-044-053-054-020700-
...NORTHERN AND WESTERN MISSOURI...

CITY           SKY/WX    TMP DP  RH WIND       PRES   REMARKS
KANSAS CTY INT FAIR      73  65  75 S9        30.01S
6HR MIN TEMP:  72; 6HR MAX TEMP:  84;

KANSAS C DTWN  FAIR      78  65  63 S8        30.00F
6HR MIN TEMP:  78; 6HR MAX TEMP:  87;

LEE`S SUMMIT   FAIR      74  64  71 S8        30.03F
6HR MIN TEMP:  74; 6HR MAX TEMP:  85;

ST JOSEPH      FAIR      74  67  78 S5        29.99S
6HR MIN TEMP:  73; 6HR MAX TEMP:  85;

CHILLICOTHE      N/A     72  68  87 CALM      30.03S
6HR MIN TEMP:  72; 6HR MAX TEMP:  86;

KIRKSVILLE     FAIR      73  68  84 S7        30.05S
6HR MIN TEMP:  73; 6HR MAX TEMP:  82;


$$
MOZ066>068-077>081-088>096-101>105-020700-
...SOUTHWEST MISSOURI...

CITY           SKY/WX    TMP DP  RH WIND       PRES   REMARKS
SPRINGFIELD    FAIR      73  68  84 S8        30.08F
6HR MIN TEMP:  73; 6HR MAX TEMP:  84;

JOPLIN         FAIR      74  66  76 SE8       30.05F
6HR MIN TEMP:  73; 6HR MAX TEMP:  83;


$$
MOZ032>034-039>042-045>050-055>058-069>072-020700-
...CENTRAL MISSOURI...

CITY           SKY/WX    TMP DP  RH WIND       PRES   REMARKS
COLUMBIA       FAIR      73  69  87 S7        30.06F
6HR MIN TEMP:  72; 6HR MAX TEMP:  80;

JEFFERSON CITY FAIR      73  69  87 E5        30.05F
6HR MIN TEMP:  73; 6HR MAX TEMP:  84;

ROLLA          FAIR      73  69  87 S8        30.08F
6HR MIN TEMP:  72; 6HR MAX TEMP:  82;

SEDALIA        FAIR      75  68  78 S8        30.06F
6HR MIN TEMP:  74; 6HR MAX TEMP:  86;

WHITEMAN AFB   CLEAR     71  67  85 S7        30.04S
WARRENSBURG    FAIR      70  64  83 SE6       30.03F
OSAGE BEACH    FAIR      73  68  83 SE5       30.08S

$$
MOZ051-052-059>065-020700-
...EAST CENTRAL MISSOURI...

CITY           SKY/WX    TMP DP  RH WIND       PRES   REMARKS
ST LOUIS INTL  FAIR      80  69  69 SW5       30.08S
6HR MIN TEMP:  80; 6HR MAX TEMP:  89;

SPIRIT OF STL  FAIR      77  71  82 VRB3      30.06S
6HR MIN TEMP:  75; 6HR MAX TEMP:  85;

ST CHARLES     FAIR      72  71  97 CALM      30.06S
6HR MIN TEMP:  72; 6HR MAX TEMP:  85;


$$
MOZ072>076-082>087-097>100-106>115-020700-
...SOUTH CENTRAL AND SOUTHEAST MISSOURI...

CITY           SKY/WX    TMP DP  RH WIND       PRES   REMARKS
CAPE GIRARDEAU FAIR      69  68  96 E3        30.08F
6HR MIN TEMP:  69; 6HR MAX TEMP:  83;

FARMINGTON     FAIR      70  68  94 CALM      30.12F
6HR MIN TEMP:  70; 6HR MAX TEMP:  81;

POPLAR BLUFF   FAIR      69  68  96 CALM      30.07F
6HR MIN TEMP:  69; 6HR MAX TEMP:  82;

WEST PLAINS    FAIR      74  68  81 S5        30.13S
6HR MIN TEMP:  73; 6HR MAX TEMP:  82;


$$



USA.gov is the U.S. government's official web portal to all federal, state and local government web resources and services.